Погода в Бобровском

Россия / Свердловская область     56°40′47″N   60°58′15″E
темп.,
°C
ветер,
м/с
пор.,
м/с
влажн.,
%
обл.,
%
осадки,
мм/ч
давл.,
гПа
погр.,
м
4 декабря, сб
сб423:00−3зюз5138261 0.0 1011697
02:00−3зюз4118687 0.0 1013506
05:00−4юз249476 0.0 101673
08:00−1ююз3994100 0.0 1016290
11:000ю41290100 0.0 1016528
14:00+2ююз51497100 0.0 1013874
17:00+2юз6169177 0.0 1013830
20:00+3юз71675100 0.0 1011831
5 декабря, вс
вс523:00+2юз71874100 0.0 1010984
02:00+2юз61482100 0.0 10091017
05:00+1юз51291100 0.0 1010803
08:00+1юз41198100 0.3 1009696
11:000юз3997100 0.8 1010592
14:000зсз4877100 0.2 1011852
17:00−4зюз269199 0.2 1013120
20:00−3зюз388198 0.1 1014508
6 декабря, пн
пн623:00−5зюз378777 0.1 1015343
02:00−5зюз378094 0.0 1016373
05:00−8зсз51072100 0.1 1018582
08:00−10сз4772100 0.0 1019519
11:00−10сз3670100 0.0 1021538
14:00−9сз34675 0.0 1022538
17:00−10зсз36805 0.0 1024325
20:00−11зсз38855 0.0 1025386
7 декабря, вт
вт723:00−12з49855 0.0 1026382
02:00−13з410835 0.0 1028368
05:00−13зсз410835 0.0 1029377
08:00−13зсз410845 0.0 1030309
11:00−12з411795 0.0 1032330
14:00−11з511734 0.0 1032389
17:00−12з412815 0.0 1034370
20:00−13з411845 0.0 1035329
8 декабря, ср
ср823:00−13з39845 0.0 1035233
02:00−14з2784100 0.0 1036191
05:00−14юз1386100 0.0 103769
08:00−12ююз2379100 0.0 103662
11:00−10ююв2472100 0.0 1036126
14:00−8ююв256789 0.0 1035191
17:00−8ююв3973100 0.0 1033244
20:00−7ю41294100 0.3 1032305